CW6538 Cattolica IT current weather conditions

sailwx.info

Wind from 017 at 5 knots gusting 7

Air temperature 24.4° C
Dewpoint 10.3° C

Last reported at 2016-Sep-25 12:54 UTC.
Time now 2016-Sep-25 14:04 UTC

Location: N 43°58' E 012°44'.
View on Google Maps.

See reports from other nearby stations

  
Tides and Currents Weather Stations Pressure Air Temp Water Temp Dewpoint Dewpoint Depression Visibility Wind Speed Wind Dir Waves Ship Positions
date/time (UTC)wind fromknots sea level pressurealtimeterstation pressurevisibilityair tempwater tempwave heightnotes
2016-Sep-25 12:54 017 5 gusting 7 24.4
2016-Sep-25 12:48 005 4 gusting 7 24.4
2016-Sep-25 12:44 005 5 gusting 9 24.4
2016-Sep-25 12:38 032 6 gusting 9 23.9
2016-Sep-25 12:34 340 6 gusting 9 24.4
2016-Sep-25 12:28 345 6 gusting 9 23.9
2016-Sep-25 12:23 042 4 gusting 8 23.9
2016-Sep-25 12:19 338 5 gusting 8 23.9
2016-Sep-25 12:13 005 6 gusting 9 23.9
2016-Sep-25 12:09 346 5 gusting 9 23.9
2016-Sep-25 12:03 336 6 gusting 9 23.9
2016-Sep-25 11:59 005 5 gusting 10 23.9
2016-Sep-25 11:53 342 7 gusting 10 23.3
2016-Sep-25 11:48 332 6 gusting 9 23.9
2016-Sep-25 11:43 338 6 gusting 10 23.9
2016-Sep-25 11:38 325 7 gusting 10 23.9
2016-Sep-25 11:34 335 6 gusting 11 23.3
2016-Sep-25 11:28 005 8 gusting 11 23.3
2016-Sep-25 11:23 360 4 gusting 11 23.3
2016-Sep-25 11:18 005 7 gusting 11 23.3
2016-Sep-25 11:13 336 4 gusting 10 23.3
2016-Sep-25 11:08 005 6 gusting 10 23.3
2016-Sep-25 11:03 322 5 gusting 10 23.3
2016-Sep-25 10:58 329 5 gusting 11 23.3
2016-Sep-25 10:53 346 6 gusting 11 23.3
2016-Sep-25 10:48 355 6 gusting 10 23.3
2016-Sep-25 10:43 011 7 gusting 11 23.3
2016-Sep-25 10:38 335 6 gusting 11 23.3
2016-Sep-25 10:34 355 5 gusting 11 23.3
2016-Sep-25 10:28 351 6 gusting 9 23.3
2016-Sep-25 10:23 325 6 gusting 8 22.8
2016-Sep-25 10:18 005 5 gusting 8 23.3
2016-Sep-25 10:13 344 6 gusting 8 22.8
2016-Sep-25 10:08 355 5 gusting 8 22.8
2016-Sep-25 10:03 337 4 gusting 8 22.8
2016-Sep-25 09:58 329 5 gusting 7 22.8
2016-Sep-25 09:53 347 2 gusting 7 22.8
2016-Sep-25 09:49 342 5 gusting 7 22.2
2016-Sep-25 09:43 021 4 gusting 6 22.2
2016-Sep-25 09:38 355 4 gusting 6 22.2
2016-Sep-25 09:33 321 3 gusting 7 21.7
2016-Sep-25 09:28 344 5 gusting 7 22.2
2016-Sep-25 09:23 315 2 gusting 7 22.2
2016-Sep-25 09:19 005 4 gusting 7 21.7
2016-Sep-25 09:13 316 3 gusting 8 21.7
2016-Sep-25 09:08 333 6 gusting 8 21.7
2016-Sep-25 09:03 313 4 gusting 6 21.1
2016-Sep-25 08:58 329 2 gusting 7 21.1
2016-Sep-25 08:53 355 4 gusting 7 21.1
2016-Sep-25 08:49 321 5 gusting 7 20.6
2016-Sep-25 08:43 355 5 gusting 6 20.6
2016-Sep-25 08:39 324 2 gusting 4 20.6
2016-Sep-25 08:33 315 0 gusting 6 20.6
2016-Sep-25 08:28 300 1 gusting 8 20.0
2016-Sep-25 08:23 323 6 gusting 8 20.0
2016-Sep-25 08:18 355 4 gusting 6 20.0
2016-Sep-25 08:13 341 4 gusting 6 19.4
2016-Sep-25 08:09 329 3 gusting 6 19.4
2016-Sep-25 08:03 288 4 gusting 6 18.9
2016-Sep-25 07:59 296 3 gusting 6 18.9
2016-Sep-25 07:53 325 2 gusting 6 18.3
2016-Sep-25 07:49 218 17.8
2016-Sep-25 07:43 205 17.8
2016-Sep-25 07:38 206 17.2
2016-Sep-25 07:34 206 16.7
2016-Sep-25 07:28 205 16.7
2016-Sep-25 07:24 205 1 gusting 4 16.1
2016-Sep-25 07:18 206 15.6
2016-Sep-25 07:13 192 2 gusting 4 15.0
2016-Sep-25 07:08 191 15.0
2016-Sep-25 07:03 191 1 gusting 3 14.4
2016-Sep-25 06:58 191 14.4
2016-Sep-25 06:53 191 13.9
2016-Sep-25 06:48 191 13.9
2016-Sep-25 06:43 191 2 gusting 4 13.3
2016-Sep-25 06:38 171 1 gusting 5 13.3
2016-Sep-25 06:33 169 4 gusting 5 12.8
2016-Sep-25 06:29 178 1 gusting 4 12.8
2016-Sep-25 06:23 190 1 gusting 4 12.8
2016-Sep-25 06:19 184 0 gusting 5 12.2
2016-Sep-25 06:13 176 2 gusting 5 12.2
2016-Sep-25 06:09 188 1 gusting 4 12.2
2016-Sep-25 06:03 183 3 gusting 4 12.2
2016-Sep-25 05:58 197 3 gusting 5 12.2
2016-Sep-25 05:53 187 2 gusting 5 12.2
2016-Sep-25 05:48 188 3 gusting 5 12.2
2016-Sep-25 05:43 188 2 gusting 6 12.2
2016-Sep-25 05:39 188 3 gusting 6 12.2
2016-Sep-25 05:33 186 3 gusting 6 12.2
2016-Sep-25 05:28 179 3 gusting 5 12.2
2016-Sep-25 05:23 206 2 gusting 4 12.2
2016-Sep-25 05:18 189 3 gusting 4 12.2
2016-Sep-25 05:14 201 3 gusting 4 12.2
2016-Sep-25 05:08 200 2 gusting 4 11.7
2016-Sep-25 05:03 200 3 gusting 4 11.7
2016-Sep-25 04:59 200 3 gusting 4 11.7
2016-Sep-25 04:53 180 2 gusting 4 12.2
2016-Sep-25 04:48 180 2 gusting 5 12.2
2016-Sep-25 04:43 180 4 gusting 5 12.2
2016-Sep-25 04:39 200 4 gusting 5 12.2
2016-Sep-25 04:33 200 1 gusting 5 12.2
2016-Sep-25 04:28 200 3 gusting 5 12.2
2016-Sep-25 04:24 200 3 gusting 5 12.2
2016-Sep-25 04:18 200 3 gusting 5 12.2
2016-Sep-25 04:13 202 3 gusting 5 12.2
2016-Sep-25 04:08 184 3 gusting 4 12.2
2016-Sep-25 04:04 184 1 gusting 5 12.2
2016-Sep-25 03:58 184 4 gusting 5 12.2
2016-Sep-25 03:53 182 3 gusting 4 12.2
2016-Sep-25 03:49 171 2 gusting 5 12.2
2016-Sep-25 03:44 171 3 gusting 5 12.2
2016-Sep-25 03:38 174 2 gusting 5 12.2
2016-Sep-25 03:34 174 3 gusting 5 12.2
2016-Sep-25 03:28 191 2 gusting 5 12.2
2016-Sep-25 03:24 191 3 gusting 5 12.2
2016-Sep-25 03:18 192 4 gusting 5 12.2
2016-Sep-25 03:13 186 3 gusting 5 12.2
2016-Sep-25 03:09 186 3 gusting 5 12.2
2016-Sep-25 03:03 201 4 gusting 5 12.2
2016-Sep-25 02:59 201 4 gusting 5 12.2
2016-Sep-25 02:53 201 3 gusting 5 12.2
2016-Sep-25 02:49 201 3 gusting 5 12.2
2016-Sep-25 02:43 207 3 gusting 5 12.2
2016-Sep-25 02:39 207 3 gusting 5 12.2
2016-Sep-25 02:33 207 3 gusting 5 12.2
2016-Sep-25 02:29 220 4 gusting 5 12.2
2016-Sep-25 02:23 185 3 gusting 5 12.2
2016-Sep-25 02:18 199 4 gusting 5 12.2
2016-Sep-25 02:14 189 3 gusting 5 12.2
2016-Sep-25 02:08 169 3 gusting 4 12.2
2016-Sep-25 02:03 194 2 gusting 5 12.8
2016-Sep-25 01:58 194 3 gusting 5 12.8
2016-Sep-25 01:53 197 3 gusting 5 12.8
2016-Sep-25 01:49 197 3 gusting 5 12.8
2016-Sep-25 01:43 197 2 gusting 5 12.8
2016-Sep-25 01:38 197 4 gusting 5 12.8
2016-Sep-25 01:34 197 3 gusting 5 12.8
2016-Sep-25 01:28 197 4 gusting 5 12.8
2016-Sep-25 01:24 197 4 gusting 5 12.8
2016-Sep-25 01:18 197 3 gusting 5 12.8
2016-Sep-25 01:14 197 4 gusting 5 12.8
2016-Sep-25 01:08 197 3 gusting 5 12.8
2016-Sep-25 01:03 197 4 gusting 5 12.8
2016-Sep-25 00:58 197 3 gusting 4 12.8
2016-Sep-25 00:53 197 2 gusting 4 12.8
2016-Sep-25 00:48 197 3 gusting 4 12.8
2016-Sep-25 00:43 197 3 gusting 5 12.8
2016-Sep-25 00:39 197 3 gusting 5 12.8
2016-Sep-25 00:33 197 3 gusting 5 13.3
2016-Sep-25 00:29 197 4 gusting 5 13.3
2016-Sep-25 00:23 197 3 gusting 5 13.3
2016-Sep-25 00:19 197 2 gusting 4 13.3
2016-Sep-25 00:13 197 1 gusting 4 13.3
2016-Sep-25 00:08 197 3 gusting 4 13.3
2016-Sep-25 00:03 197 3 gusting 4 13.3
2016-Sep-24 23:59 197 3 gusting 4 13.3
2016-Sep-24 23:53 197 2 gusting 4 13.3
2016-Sep-24 23:48 197 3 gusting 4 13.3
2016-Sep-24 23:44 197 3 gusting 4 13.3
2016-Sep-24 23:38 197 2 gusting 4 13.3
2016-Sep-24 23:33 197 2 gusting 4 13.3
2016-Sep-24 23:28 197 2 gusting 4 13.3
2016-Sep-24 23:23 197 2 gusting 4 13.9
2016-Sep-24 23:19 197 2 gusting 5 13.9
2016-Sep-24 23:13 197 3 gusting 5 13.9
2016-Sep-24 23:09 197 2 gusting 4 13.9
2016-Sep-24 23:03 197 3 gusting 4 13.9
2016-Sep-24 22:59 197 2 gusting 4 13.9
2016-Sep-24 22:53 198 1 gusting 4 13.9
2016-Sep-24 22:49 198 2 gusting 4 13.9
2016-Sep-24 22:43 199 3 gusting 5 13.9
2016-Sep-24 22:39 195 1 gusting 4 13.9
2016-Sep-24 22:33 195 3 gusting 4 13.9
2016-Sep-24 22:29 194 4 gusting 5 13.9
2016-Sep-24 22:23 195 3 gusting 5 13.9
2016-Sep-24 22:18 192 3 gusting 4 14.4
2016-Sep-24 22:13 188 2 gusting 4 14.4
2016-Sep-24 22:09 188 2 gusting 4 14.4
2016-Sep-24 22:03 192 3 gusting 4 14.4
2016-Sep-24 21:58 195 1 gusting 4 14.4
2016-Sep-24 21:53 195 2 gusting 4 14.4
2016-Sep-24 21:48 190 2 gusting 4 14.4
2016-Sep-24 21:43 190 1 gusting 4 14.4
2016-Sep-24 21:39 188 3 gusting 4 14.4
2016-Sep-24 21:33 188 3 gusting 4 15.0
2016-Sep-24 21:28 187 3 gusting 4 15.0
2016-Sep-24 21:23 184 3 gusting 4 15.0
2016-Sep-24 21:19 180 3 gusting 4 15.0
2016-Sep-24 21:13 180 1 gusting 4 15.0
2016-Sep-24 21:09 180 3 gusting 4 15.0
2016-Sep-24 21:03 180 1 gusting 4 15.0
2016-Sep-24 20:58 180 1 gusting 4 15.6
2016-Sep-24 20:53 180 2 gusting 5 15.6
2016-Sep-24 20:49 172 3 gusting 5 15.6
2016-Sep-24 20:44 173 2 gusting 5 15.6
2016-Sep-24 20:38 165 1 gusting 4 15.6
2016-Sep-24 20:33 165 2 gusting 4 15.6
2016-Sep-24 20:28 165 1 gusting 5 16.1
2016-Sep-24 20:24 176 2 gusting 4 16.1
2016-Sep-24 20:18 176 3 gusting 4 16.1
2016-Sep-24 20:13 176 1 gusting 4 16.7
2016-Sep-24 20:08 176 2 gusting 4 16.7
2016-Sep-24 20:04 176 16.7
2016-Sep-24 19:58 176 2 gusting 4 16.7
2016-Sep-24 19:54 176 2 gusting 4 16.7
2016-Sep-24 19:48 189 3 gusting 4 16.7
2016-Sep-24 19:44 188 1 gusting 4 17.2
2016-Sep-24 19:38 188 1 gusting 4 17.2
2016-Sep-24 19:34 188 2 gusting 4 17.2
2016-Sep-24 19:28 188 2 gusting 4 17.2
2016-Sep-24 19:24 196 1 gusting 3 17.8
2016-Sep-24 19:19 196 1 gusting 3 17.8
2016-Sep-24 19:13 194 17.8
2016-Sep-24 19:09 194 0 gusting 3 17.8
2016-Sep-24 19:03 157 0 gusting 1 17.8
2016-Sep-24 18:58 157 18.3
2016-Sep-24 18:53 157 18.3
2016-Sep-24 18:48 157 0 gusting 3 18.3
2016-Sep-24 18:43 157 18.3
2016-Sep-24 18:38 157 18.9
2016-Sep-24 18:33 157 18.9
2016-Sep-24 18:29 153 18.9
2016-Sep-24 18:23 153 19.4
2016-Sep-24 18:19 153 1 gusting 4 19.4
2016-Sep-24 18:13 154 1 gusting 4 20.0
2016-Sep-24 18:09 148 1 gusting 4 20.0
2016-Sep-24 18:04 348 20.6
2016-Sep-24 17:58 348 20.6
2016-Sep-24 17:54 348 20.6
2016-Sep-24 17:48 348 21.1
2016-Sep-24 17:43 348 21.1
2016-Sep-24 17:38 348 21.1
2016-Sep-24 17:33 348 21.1
2016-Sep-24 17:28 013 21.1
2016-Sep-24 17:23 013 1 gusting 4 21.1
2016-Sep-24 17:18 013 21.1
2016-Sep-24 17:13 013 2 gusting 4 21.7
2016-Sep-24 17:09 344 1 gusting 4 21.7
2016-Sep-24 17:04 344 1 gusting 3 21.7
2016-Sep-24 16:58 344 1 gusting 4 21.7
2016-Sep-24 16:53 344 21.7
2016-Sep-24 16:48 344 21.7
2016-Sep-24 16:43 344 21.7
2016-Sep-24 16:38 344 2 gusting 4 21.7
2016-Sep-24 16:33 344 0 gusting 4 22.2
2016-Sep-24 16:28 344 1 gusting 4 22.2
2016-Sep-24 16:24 344 1 gusting 4 22.2
2016-Sep-24 16:18 344 2 gusting 4 22.2
2016-Sep-24 16:14 344 1 gusting 4 22.2
2016-Sep-24 16:08 015 1 gusting 5 22.2
2016-Sep-24 16:03 015 3 gusting 5 22.8
2016-Sep-24 15:59 035 2 gusting 4 22.8
2016-Sep-24 15:53 005 3 gusting 4 22.8
2016-Sep-24 15:49 005 0 gusting 4 22.8
2016-Sep-24 15:43 005 2 gusting 6 22.8
2016-Sep-24 15:39 005 4 gusting 6 22.8
2016-Sep-24 15:33 057 2 gusting 5 22.8
2016-Sep-24 15:28 005 4 gusting 6 22.8
2016-Sep-24 15:24 030 3 gusting 6 22.8
2016-Sep-24 15:18 024 3 gusting 6 22.8
2016-Sep-24 15:13 005 2 gusting 6 23.3
2016-Sep-24 15:08 034 4 gusting 6 23.3
2016-Sep-24 15:03 018 2 gusting 5 22.8
2016-Sep-24 14:58 009 3 gusting 6 23.3
2016-Sep-24 14:53 017 5 gusting 6 23.3
2016-Sep-24 14:49 009 3 gusting 6 23.3
2016-Sep-24 14:43 018 3 gusting 6 23.3
2016-Sep-24 14:39 050 2 gusting 6 23.9
2016-Sep-24 14:33 360 2 gusting 6 23.9
2016-Sep-24 14:29 034 2 gusting 6 23.9
2016-Sep-24 14:23 315 2 gusting 6 23.9
2016-Sep-24 14:19 044 3 gusting 6 23.9
2016-Sep-24 14:13 355 2 gusting 6 23.9
2016-Sep-24 14:08 044 3 gusting 6 23.9
2016-Sep-24 11:59 010 6 gusting 10 23.3
2016-Sep-24 11:54 321 6 gusting 10 23.3
2016-Sep-24 11:49 064 6 gusting 9 23.3
2016-Sep-24 11:43 331 6 gusting 9 23.9
2016-Sep-24 11:39 360 5 gusting 11 23.3
2016-Sep-24 11:33 011 6 gusting 11 23.3
2016-Sep-24 11:29 342 6 gusting 9 23.3
2016-Sep-24 11:24 331 4 gusting 11 23.3
2016-Sep-24 11:19 350 6 gusting 11 22.8
2016-Sep-24 11:13 330 6 gusting 10 22.8
2016-Sep-24 11:09 335 6 gusting 10 23.3
2016-Sep-24 11:04 304 7 gusting 10 23.3
2016-Sep-24 10:59 013 5 gusting 9 23.3
2016-Sep-24 10:53 321 4 gusting 11 22.8
2016-Sep-24 10:48 320 6 gusting 11 22.8
2016-Sep-24 10:44 350 4 gusting 11 22.8
2016-Sep-24 10:39 317 6 gusting 11 22.8
2016-Sep-24 10:33 348 4 gusting 11 22.8
2016-Sep-24 10:29 336 6 gusting 10 22.8
2016-Sep-24 10:23 350 5 gusting 10 22.8
2016-Sep-24 10:19 340 5 gusting 11 22.8
2016-Sep-24 10:13 345 6 gusting 11 22.2
2016-Sep-24 10:09 333 5 gusting 10 22.8
2016-Sep-24 10:04 340 6 gusting 10 22.8
2016-Sep-24 09:58 360 6 gusting 9 22.8
2016-Sep-24 09:54 339 6 gusting 9 22.2
2016-Sep-24 09:48 005 5 gusting 9 22.2
2016-Sep-24 09:44 271 6 gusting 9 22.2
2016-Sep-24 09:38 005 3 gusting 9 22.2
2016-Sep-24 09:34 338 6 gusting 8 22.2
2016-Sep-24 09:28 318 3 gusting 6 22.2
2016-Sep-24 09:24 019 2 gusting 6 21.7
2016-Sep-24 09:19 360 3 gusting 6 21.7
2016-Sep-24 09:13 325 2 gusting 5 21.1
2016-Sep-24 09:09 291 1 gusting 6 20.6
2016-Sep-24 09:03 347 4 gusting 6 20.6
2016-Sep-24 08:59 296 4 gusting 6 20.6
2016-Sep-24 08:53 315 4 gusting 6 20.6
2016-Sep-24 08:48 329 4 gusting 6 21.1
2016-Sep-24 08:44 010 4 gusting 6 21.1
2016-Sep-24 08:39 024 1 gusting 2 21.1
2016-Sep-24 08:34 299 20.6
2016-Sep-24 08:28 299 20.0
2016-Sep-24 08:24 299 20.0
2016-Sep-24 08:19 254 19.4
2016-Sep-24 08:13 254 18.9
2016-Sep-24 08:09 248 0 gusting 2 18.9
2016-Sep-24 08:03 248 18.9
2016-Sep-24 07:58 248 18.3
2016-Sep-24 07:53 248 18.3
2016-Sep-24 07:49 249 17.8
2016-Sep-24 07:43 213 17.2
2016-Sep-24 07:39 213 17.2
2016-Sep-24 07:34 213 0 gusting 4 16.7
2016-Sep-24 07:28 213 0 gusting 4 16.1
2016-Sep-24 07:24 213 0 gusting 4 16.1
2016-Sep-24 07:18 189 1 gusting 4 15.6
2016-Sep-24 07:13 175 0 gusting 4 15.0
2016-Sep-24 07:09 175 0 gusting 4 15.0
2016-Sep-24 07:03 175 2 gusting 4 14.4
2016-Sep-24 06:59 184 2 gusting 5 14.4
2016-Sep-24 06:53 184 3 gusting 5 13.9
2016-Sep-24 06:49 185 1 gusting 5 13.9
2016-Sep-24 06:44 193 2 gusting 5 13.9
2016-Sep-24 06:38 181 3 gusting 6 13.3
2016-Sep-24 06:34 189 3 gusting 6 12.8
2016-Sep-24 06:28 199 3 gusting 5 12.8
2016-Sep-24 06:24 205 2 gusting 4 12.8
2016-Sep-24 06:18 245 0 gusting 4 12.2
2016-Sep-24 06:14 195 12.2
2016-Sep-24 06:08 195 1 gusting 4 12.2
2016-Sep-24 06:03 195 3 gusting 5 12.2
2016-Sep-24 05:59 195 4 gusting 5 12.2
2016-Sep-24 05:54 195 4 gusting 5 11.7
2016-Sep-24 05:48 195 3 gusting 5 11.7
2016-Sep-24 05:44 195 3 gusting 5 11.7
2016-Sep-24 05:39 195 3 gusting 5 11.7
2016-Sep-24 05:34 195 4 gusting 5 11.7
2016-Sep-24 05:28 195 3 gusting 5 11.7
2016-Sep-24 05:24 195 3 gusting 6 11.7
2016-Sep-24 05:18 195 4 gusting 6 11.7
2016-Sep-24 05:14 196 4 gusting 6 11.7
2016-Sep-24 05:08 194 4 gusting 6 11.7
2016-Sep-24 05:04 190 4 gusting 6 11.7
2016-Sep-24 04:59 185 4 gusting 6 11.7
2016-Sep-24 04:53 191 3 gusting 6 11.7
2016-Sep-24 04:49 184 4 gusting 6 11.7
2016-Sep-24 04:43 171 3 gusting 5 11.7
2016-Sep-24 04:39 178 3 gusting 5 11.7
2016-Sep-24 04:33 174 3 gusting 5 11.7
2016-Sep-24 04:29 170 3 gusting 5 11.7
2016-Sep-24 04:24 169 4 gusting 5 11.7
2016-Sep-24 04:18 170 3 gusting 5 11.7
2016-Sep-24 04:14 180 3 gusting 5 11.7
2016-Sep-24 04:08 178 3 gusting 5 11.7
2016-Sep-24 04:04 169 3 gusting 5 11.7
2016-Sep-24 03:59 181 3 gusting 5 11.7
2016-Sep-24 03:54 168 2 gusting 4 11.7
2016-Sep-24 03:48 168 3 gusting 5 11.7
2016-Sep-24 03:44 168 4 gusting 6 11.7
2016-Sep-24 03:38 179 4 gusting 6 11.7
2016-Sep-24 03:34 176 4 gusting 6 12.2
2016-Sep-24 03:29 169 3 gusting 5 12.2
2016-Sep-24 03:24 197 4 gusting 6 12.2
2016-Sep-24 03:18 171 4 gusting 6 12.2
2016-Sep-24 03:14 169 5 gusting 6 12.2
2016-Sep-24 03:09 171 5 gusting 6 12.2
2016-Sep-24 03:03 172 4 gusting 6 12.2
2016-Sep-24 02:59 175 4 gusting 5 12.2
2016-Sep-24 02:53 180 4 gusting 5 12.2
2016-Sep-24 02:49 181 4 gusting 5 12.2
2016-Sep-24 02:43 168 3 gusting 5 12.2
2016-Sep-24 02:39 181 4 gusting 5 12.2
2016-Sep-24 02:33 181 3 gusting 5 12.2
2016-Sep-24 02:29 178 4 gusting 5 12.2
2016-Sep-24 02:23 173 3 gusting 5 12.2
2016-Sep-24 02:19 173 3 gusting 5 12.2
2016-Sep-24 02:14 175 4 gusting 6 12.2
2016-Sep-24 02:09 179 4 gusting 6 12.2
2016-Sep-24 02:03 179 4 gusting 6 12.2
2016-Sep-24 01:59 188 4 gusting 5 12.2
2016-Sep-24 01:53 185 4 gusting 6 12.2
2016-Sep-24 01:49 177 4 gusting 6 12.2
2016-Sep-24 01:44 192 3 gusting 5 12.8
2016-Sep-24 01:38 181 4 gusting 5 12.8
2016-Sep-24 01:34 193 3 gusting 6 12.8
2016-Sep-24 01:28 187 3 gusting 6 12.8
2016-Sep-24 01:23 171 4 gusting 6 12.8
2016-Sep-24 01:19 167 4 gusting 5 12.8
2016-Sep-24 01:13 178 3 gusting 6 12.8
2016-Sep-24 01:09 180 4 gusting 6 12.8
2016-Sep-24 01:04 167 4 gusting 5 12.8
2016-Sep-24 00:58 172 3 gusting 5 12.8
2016-Sep-24 00:54 178 3 gusting 5 12.8
2016-Sep-24 00:48 193 4 gusting 5 12.8
2016-Sep-24 00:44 188 4 gusting 5 12.8
2016-Sep-24 00:38 182 4 gusting 5 12.8
2016-Sep-24 00:33 181 3 gusting 5 12.8
2016-Sep-24 00:29 194 4 gusting 5 12.8
2016-Sep-24 00:23 171 3 gusting 4 12.8
2016-Sep-24 00:19 171 3 gusting 5 13.3
2016-Sep-24 00:13 171 3 gusting 5 13.3
2016-Sep-24 00:08 167 284 gusting 284 13.3
2016-Sep-24 00:04 167 3 gusting 5 13.3
2016-Sep-23 23:58 179 3 gusting 5 13.3
2016-Sep-23 23:53 180 3 gusting 5 13.3
2016-Sep-23 23:49 175 3 gusting 5 13.3
2016-Sep-23 23:43 173 4 gusting 5 13.3
2016-Sep-23 23:39 180 3 gusting 5 13.3
2016-Sep-23 23:34 180 3 gusting 5 13.3
2016-Sep-23 23:28 180 3 gusting 4 13.3
2016-Sep-23 23:24 180 4 gusting 4 13.3
2016-Sep-23 23:18 173 3 gusting 5 13.3
2016-Sep-23 23:14 172 3 gusting 5 13.9
2016-Sep-23 23:08 172 4 gusting 5 13.9
2016-Sep-23 23:03 178 3 gusting 4 13.9
2016-Sep-23 22:59 178 2 gusting 4 13.9
2016-Sep-23 22:53 178 3 gusting 4 13.9
2016-Sep-23 22:48 178 2 gusting 4 13.9
2016-Sep-23 22:44 178 3 gusting 4 13.9
2016-Sep-23 22:38 178 2 gusting 5 13.9
2016-Sep-23 22:34 178 2 gusting 4 13.9
2016-Sep-23 22:29 178 3 gusting 4 13.9
2016-Sep-23 22:24 178 3 gusting 4 14.4
2016-Sep-23 22:19 178 3 gusting 4 14.4
2016-Sep-23 22:13 178 1 gusting 4 14.4
2016-Sep-23 22:09 178 3 gusting 4 14.4
2016-Sep-23 22:03 178 3 gusting 4 14.4
2016-Sep-23 21:59 178 2 gusting 4 14.4
2016-Sep-23 21:53 178 1 gusting 3 14.4
2016-Sep-23 21:49 178 1 gusting 3 15.0
2016-Sep-23 21:43 178 1 gusting 3 15.0
2016-Sep-23 21:39 178 1 gusting 2 15.0
2016-Sep-23 21:33 178 0 gusting 3 15.0
2016-Sep-23 21:28 178 1 gusting 2 15.0
2016-Sep-23 21:24 178 1 gusting 2 15.6
2016-Sep-23 21:18 178 1 gusting 4 15.6
2016-Sep-23 21:14 178 2 gusting 4 15.6
2016-Sep-23 21:09 186 2 gusting 4 15.6
2016-Sep-23 21:03 169 2 gusting 4 15.6
2016-Sep-23 20:59 163 1 gusting 3 15.6
2016-Sep-23 20:53 163 1 gusting 4 15.6
2016-Sep-23 20:49 163 1 gusting 4 16.1
2016-Sep-23 20:43 163 1 gusting 4 16.1
2016-Sep-23 20:39 163 2 gusting 4 16.1
2016-Sep-23 20:33 163 1 gusting 4 16.1
2016-Sep-23 20:29 163 2 gusting 4 16.1
2016-Sep-23 20:23 182 1 gusting 4 16.7
2016-Sep-23 20:19 182 2 gusting 4 16.7
2016-Sep-23 20:13 182 2 gusting 3 16.7
2016-Sep-23 20:09 182 1 gusting 2 16.7
2016-Sep-23 20:03 182 16.7
2016-Sep-23 19:59 182 17.2
2016-Sep-23 19:54 182 0 gusting 3 17.2
2016-Sep-23 19:48 182 1 gusting 3 17.2
2016-Sep-23 19:44 182 0 gusting 3 17.2
2016-Sep-23 19:38 182 17.2
2016-Sep-23 19:34 182 17.8
2016-Sep-23 19:28 182 1 gusting 4 17.8
2016-Sep-23 19:24 182 1 gusting 4 17.8
2016-Sep-23 19:18 182 2 gusting 4 17.8
2016-Sep-23 19:14 182 1 gusting 4 17.8
2016-Sep-23 19:08 182 2 gusting 4 17.8
2016-Sep-23 19:03 182 18.3
2016-Sep-23 18:59 182 0 gusting 4 18.3
2016-Sep-23 18:53 182 2 gusting 4 18.3
2016-Sep-23 18:49 182 1 gusting 4 18.3
2016-Sep-23 18:43 182 2 gusting 4 18.3
2016-Sep-23 18:39 182 1 gusting 4 18.9
2016-Sep-23 18:34 182 0 gusting 4 18.9
2016-Sep-23 18:29 182 1 gusting 4 18.9
2016-Sep-23 18:23 182 1 gusting 4 18.9
2016-Sep-23 18:19 182 2 gusting 4 18.9
2016-Sep-23 18:13 185 2 gusting 4 18.9
2016-Sep-23 18:08 185 0 gusting 3 19.4
2016-Sep-23 18:03 134 1 gusting 3 19.4
2016-Sep-23 17:59 134 19.4
2016-Sep-23 17:53 134 19.4
2016-Sep-23 17:49 134 19.4
2016-Sep-23 17:43 129 20.0
2016-Sep-23 17:39 126 20.0
2016-Sep-23 17:33 126 20.0
2016-Sep-23 17:28 114 1 gusting 2 20.0
2016-Sep-23 17:24 114 1 gusting 3 20.0
2016-Sep-23 17:19 114 1 gusting 2 20.6
2016-Sep-23 17:13 113 1 gusting 4 20.6
2016-Sep-23 17:09 113 1 gusting 4 20.6
2016-Sep-23 17:04 109 2 gusting 4 20.6
2016-Sep-23 16:58 113 20.6
2016-Sep-23 16:53 113 20.6
2016-Sep-23 16:49 113 2 gusting 5 20.6
2016-Sep-23 16:43 113 2 gusting 5 20.6
2016-Sep-23 16:39 112 3 gusting 6 21.1
2016-Sep-23 16:33 107 3 gusting 6 21.1
2016-Sep-23 16:29 115 3 gusting 6 21.1
2016-Sep-23 16:23 090 2 gusting 7 21.1
2016-Sep-23 16:19 105 5 gusting 7 21.7
2016-Sep-23 16:13 115 3 gusting 6 21.7
2016-Sep-23 16:09 080 5 gusting 7 21.7
2016-Sep-23 16:03 115 4 gusting 8 21.7
2016-Sep-23 15:58 118 4 gusting 8 21.7
2016-Sep-23 15:54 090 6 gusting 8 22.2
2016-Sep-23 15:48 111 3 gusting 6 22.2
2016-Sep-23 15:44 137 4 gusting 7 22.2
2016-Sep-23 15:38 104 6 gusting 7 22.2
2016-Sep-23 15:34 112 5 gusting 11 22.2
2016-Sep-23 15:29 109 7 gusting 11 22.2
2016-Sep-23 15:23 065 6 gusting 9 22.2
2016-Sep-23 15:19 113 6 gusting 7 22.2
2016-Sep-23 15:13 128 5 gusting 9 22.2
2016-Sep-23 15:09 079 4 gusting 11 22.2
2016-Sep-23 15:03 119 6 gusting 11 22.2
2016-Sep-23 14:59 078 6 gusting 12 22.8
2016-Sep-23 14:54 062 3 gusting 12 22.8
2016-Sep-23 14:49 074 6 gusting 10 22.8
2016-Sep-23 14:43 096 5 gusting 8 22.8
2016-Sep-23 14:39 067 5 gusting 8 22.8
2016-Sep-23 14:34 084 3 gusting 9 22.8
2016-Sep-23 14:28 119 4 gusting 10 22.8
2016-Sep-23 14:23 092 5 gusting 10 22.8
2016-Sep-23 14:19 061 4 gusting 9 22.8
2016-Sep-23 14:13 103 6 gusting 10 22.8
2016-Sep-23 14:09 119 5 gusting 10 22.8
2016-Sep-23 14:04 078 5 gusting 10 23.3